Regional Weather Roundup
Issued by NWS

Home | Current Version | Previous Version | Text Only | Print | Product List | Glossary On
Versions: 1 2 3 4 5 6 7 8 9 10 11 12 13 14 15 16 17 18 19 20 21 22 23 24 25 26 27 28 29 30 31 32 33 34 35 36 37 38 39 40 41 42 43 44 45 46 47 48 49 50
000
ASUS42 KTBW 020210
RWRFL
FLORIDA REGIONAL WEATHER ROUNDUP
NATIONAL WEATHER SERVICE TAMPA BAY RUSKIN FL
1000 PM EDT FRI AUG 01 2014

NOTE: "FAIR" INDICATES FEW OR NO CLOUDS BELOW 12,000 FEET WITH NO
SIGNIFICANT WEATHER AND/OR OBSTRUCTIONS TO VISIBILITY.


FLZ001>010-012>015-112-114-115-020300-
PANHANDLE FLORIDA

CITY           SKY/WX    TMP DP  RH WIND       PRES   REMARKS
PENSACOLA      PTCLDY    75  66  73 CALM      29.96S
PENSACOLA NAS  MOCLDY    75  72  90 CALM      29.96S
MILTON NAS     MOCLDY    75  70  84 N5        29.97S
CRESTVIEW      CLEAR     75  70  84 CALM      29.99S
DUKE FIELD     PTCLDY    77  71  80 CALM      29.97S
VALPARAISO     MOCLDY    80  70  71 CALM      29.97S
MARY ESTHER    PTCLDY    81  64  56 NW6       29.96R
TRI COUNTY     FAIR      74  72  93 CALM      29.99R
PANAMA CITY    FAIR      78  69  73 CALM      29.97R
TYNDALL AFB    DRIZZLE   78  70  75 NW5       29.98S
APALACHICOLA   PTCLDY    74  69  85 CALM      29.97S

STATION/POSITION SKY/WX   TEMP    WIND        PRES    WAVE   SWELL
                          AIR SEA DIR/SP/G            HT/PER HT/PER
                          (F)     (DEG/KT/KT) (MB)    (FT/S) (FT/S)
30.1N   87.6W              82 84  340/  4/  4 1014.7F   0
29.2N   88.2W              82 85   60/  4/  6 1015.0
28.8N   86.0W              82 86  350/  2/  4 1015.4R   1
PANAMA CITY BEAC           81 82  300/  5/  6 1014.9R
CAPE SAN BLAS    NOT AVBL
TOWER C                    81     310/ 10/ 10 1014.8S
28.5N   84.5W              82 85   20/  2/  4 1015.3R   1

$$
FLZ011-016>038-118-127-128-134-139-239-020300-
NORTH FLORIDA

CITY           SKY/WX    TMP DP  RH WIND       PRES   REMARKS
MARIANNA       CLEAR     79  73  82 N5        29.97R
TALLAHASSEE    MOCLDY    80  71  74 E6        29.97R
PERRY          PTCLDY    77  70  78 CALM      29.98S
CROSS CITY       N/A     76  69  79 CALM      29.98R
GAINESVILLE    CLEAR     77  69  76 W6        29.98R
MAYPORT NAS    CLEAR     84  75  74 SE10      29.98R
JACKSONVILLE   PTCLDY    81  74  79 SE5       29.97R
JAX NAS        PTCLDY    87  74  64 SE10      29.98R HX  95
JAX CRAIG      CLEAR     81  75  82 S5        29.98R
JAX CECIL      CLEAR     77  72  83 CALM      29.98R
FERNANDINA BEA FAIR      84  73  70 SE10      29.97S
ST AUGUSTINE   PTCLDY    82  75  79 S13       29.99R

STATION/POSITION SKY/WX   TEMP    WIND        PRES    WAVE   SWELL
                          AIR SEA DIR/SP/G            HT/PER HT/PER
                          (F)     (DEG/KT/KT) (MB)    (FT/S) (FT/S)
SHELL POINT                85     230/  7/  9   N/A
KEATON BEACH               83     230/  5/  6 1015.3R
CEDAR KEY                  82     290/  3/  4 1015.6R
FERNANDINA                 84 88  150/  6/ 11 1014.7R
30.7N   81.3W                 86                N/A     3/ 3
MAYPORT                    83 87  150/  6/ 11   N/A
31.4N   80.9W              83 85  140/ 14/ 16 1015.3R   4/ 6   2/ 7
ST AUGUSTINE               82     170/ 15/ 16 1015.7R

$$
FLZ040-043>046-052-053-057-058-063-144-020300-
INTERIOR CENTRAL FLORIDA

CITY           SKY/WX    TMP DP  RH WIND       PRES   REMARKS
OCALA          PTCLDY    79  64  61 CALM      29.99S
LEESBURG       PTCLDY    84  75  74 SE8       29.99R
SANFORD        CLOUDY    81  75  82 E5        29.98S
ORLANDO EXEC   CLOUDY    82  73  74 SE5       29.99R
ORLANDO INTL   CLOUDY    80  73  79 S5        29.99R
KISSIMMEE      MOCLDY    81  75  83 CALM      29.98S
WINTER HAVEN   CLOUDY    81  74  79 S6        30.00R
LAKELAND       PTCLDY    81  73  78 CALM      29.99S
BARTOW         FAIR      79  73  83 CALM      30.00R
OKEECHOBEE       N/A     77  72  83 MISG      30.01R

$$
FLZ041-047-054-059-064-141-147-020300-
EAST CENTRAL FLORIDA

CITY           SKY/WX    TMP DP  RH WIND       PRES   REMARKS
DAYTONA BEACH  CLOUDY    82  75  79 SE3       29.98S
DELAND         MOCLDY    81  75  83 SE3       29.99S
JFK SPACE CTR  CLOUDY    79  79 100 SE3       29.98S
CAPE CANAVERAL CLOUDY    79  77  92 SE5       29.98R
PATRICK AFB    CLOUDY    82  78  85 SE8       29.99R
MELBOURNE      CLOUDY    83  76  79 E6        29.99R
VERO BEACH     PTCLDY    81  75  82 E8        29.99R
FT PIERCE      CLEAR     82  75  79 E8        29.98R
STUART         CLEAR     81  75  83 E5        30.00R

STATION/POSITION SKY/WX   TEMP    WIND        PRES    WAVE   SWELL
                          AIR SEA DIR/SP/G            HT/PER HT/PER
                          (F)     (DEG/KT/KT) (MB)    (FT/S) (FT/S)
28.5N   80.2W              84 83  110/ 10/ 14 1015.4F
28.9N   78.5W              83 85  110/ 14/ 16 1016.3S   2/ 7   2/ 7
TRIDENT PIER               81 85  100/  4/  5 1014.7R
28.4N   80.5W                 84                N/A     1/ 8
27.6N   80.2W                 83                N/A     2/ 3

$$
FLZ050-056-061-142-242-148-248-149-249-151-251-155-255-
160-260-020300-
WEST CENTRAL FLORIDA

CITY           SKY/WX    TMP DP  RH WIND       PRES   REMARKS
CRYSTAL RIVER  FAIR      75  68  78 CALM      29.98S
INVERNESS      FAIR      77  66  69 CALM      29.98F
BROOKSVILLE    PTCLDY    81  70  69 NW5       29.99S
ZEPHYRHILLS    CLOUDY    79  72  78 CALM      30.00R
CLEARWATER     CLEAR     82  71  69 N8        29.98R
TAMPA INTL     PTCLDY    82  70  66 N7        29.98R
TAMPA EXEC     MOCLDY    79  72  78 CALM      29.99R
MACDILL AFB    PTCLDY    82  72  72 N7        29.98R
ST PETERSBURG  PTCLDY    85  70  60 N8        29.96R
SARASOTA       MOCLDY    86  67  52 N6        29.96R
VENICE         MOCLDY    86  72  62 NE5       29.98R

STATION/POSITION SKY/WX   TEMP    WIND        PRES    WAVE   SWELL
                          AIR SEA DIR/SP/G            HT/PER HT/PER
                          (F)     (DEG/KT/KT) (MB)    (FT/S) (FT/S)
CEDAR KEY                  82     290/  3/  4 1015.6R
28.5N   84.5W              82 85   20/  2/  4 1015.3R   1
27.3N   84.3W                 87                N/A     0
CLEARWATER BEACH           84 89   10/  8/ 11 1014.8R
MIDDLE TAMPA BAY           85     350/ 10/ 12 1015.1R
VENICE                     86 90   10/  4/  6 1014.7R

$$
FLZ066-069-070-075>078-162-262-165-265-020300-
SOUTHWEST FLORIDA AND KEYS

CITY           SKY/WX    TMP DP  RH WIND       PRES   REMARKS
PUNTA GORDA    CLOUDY    81  74  79 SE6       30.00R
FT MYERS       CLOUDY    77  75  93 SE8       29.99R
SOUTHWEST INTL LGT RAIN  77  74  90 SE8       29.99S
NAPLES         LGT RAIN  76  72  87 E7        30.00R
MARCO ISLAND   MOCLDY    75  73  94 NE10      30.01R
MARATHON       PTCLDY    84  78  82 E5        29.96S HX  95
KEY WEST NAS   MOCLDY    86  75  69 NE5       29.96R HX  95
KEY WEST INTL  PTCLDY    86  76  71 CALM      29.97R HX  96

STATION/POSITION SKY/WX   TEMP    WIND        PRES    WAVE   SWELL
                          AIR SEA DIR/SP/G            HT/PER HT/PER
                          (F)     (DEG/KT/KT) (MB)    (FT/S) (FT/S)
VENICE                     86 90   10/  4/  6 1014.7R
NAPLES                     76 94   80/  6/  8 1016.5R
DRY TORTUGAS               85      60/  9/ 11 1014.7R
NW FL BAY                  87      50/  4/  5 1014.6R
SAND KEY                   85      60/  5/  6 1014.6R
SOMBRERO KEY               85      50/  7/  9 1015.2R
LONG KEY                   86 92  100/  7/  8 1015.2R
MOLASSES REEF              85 87  100/  6/  7 1014.8R

$$
FLZ067-068-071>074-168-172>174-020300-
SOUTHEAST FLORIDA

CITY           SKY/WX    TMP DP  RH WIND       PRES   REMARKS
W PALM BEACH   PTCLDY    85  75  72 E9        29.98R
FT LAUDER-EXEC PTCLDY    84  76  76 SE6       29.98R
FT LAUDERDALE  PTCLDY    86  75  69 SE9       29.98R HX  95
POMPANO BEACH    N/A    N/A N/A N/A MISG      29.98R
PEMBROKE PINES PTCLDY    82  74  76 CALM      29.99R
OPA LOCKA      PTCLDY    82  73  74 CALM      29.99R
MIAMI          PTCLDY    81  72  74 CALM      29.98R
WEST KENDALL   PTCLDY    82  72  71 N5        29.98R
HOMESTEAD      PTCLDY    79  75  89 SW3       29.98R

STATION/POSITION SKY/WX   TEMP    WIND        PRES    WAVE   SWELL
                          AIR SEA DIR/SP/G            HT/PER HT/PER
                          (F)     (DEG/KT/KT) (MB)    (FT/S) (FT/S)
PORT EVERGLADES            85     120/  3/  7 1014.9
VIRGINIA KEY               85 89  110/  5/  6   N/A
LAKE WORTH                 84 87  120/  7/ 10 1015.1R
FOWEY ROCKS                85 87   80/  6/  7 1015.5R
SETTLEMENT POINT           85     100/ 12/ 13 1016.0R

$$




USA.gov is the U.S. government's official web portal to all federal, state and local government web resources and services.